Theta_e
328 331 327 324 319 323 314 315 310 315 320 325 327 328 330 332 335 336 338 339 341 344 347 348 350 351 352 355 357 359 358 359
326 328 321 321 323 314 314 305 304 311 314 316 323 325 330 331 334 339 343 344 346 347 349 351 355 360 362 360 360 362 363 363
324 321 319 316 315 315 315 313 308 307 312 325 325 326 329 332 336 338 340 340 342 345 349 349 348 349 349 350 351 354 358 359
321 323 325 322 319 317 311 311 312 311 313 326 326 329 331 333 336 338 340 341 342 343 344 344 343 344 345 347 347 349 351 352
317 316 321 319 317 318 316 316 312 309 314 328 329 329 332 333 335 337 338 339 340 340 339 339 341 341 340 339 340 343 346 344
312 315 318 313 314 316 316 311 313 313 319 324 326 327 331 332 334 334 336 336 336 337 338 338 339 339 339 338 340 341 344 341
321 318 316 314 313 314 314 316 313 316 315 324 327 328 330 333 333 333 332 333 335 335 336 336 337 338 339 339 342 343 344 342
316 314 315 313 316 315 315 316 317 317 318 329 329 330 330 330 330 330 332 334 334 334 334 335 338 339 341 342 345 345 345 343
312 315 313 311 316 317 318 319 319 316 323 328 325 326 328 329 330 330 332 333 334 334 335 338 337 340 340 341 343 342 339 338
313 315 302 315 321 320 318 320 322 322 325 328 326 328 329 331 331 331 332 333 336 338 338 339 340 341 341 338 337 336 336 336
311 308 313 316 318 318 319 319 323 324 325 326 326 327 328 333 334 334 335 337 338 337 337 340 339 338 336 335 335 335 335 335
312 309 308 318 323 325 324 316 324 326 325 325 326 320 326 334 335 335 335 338 336 336 336 336 336 336 335 334 335 334 334 335
316 312 317 323 324 326 314 318 324 326 326 327 324 328 334 335 335 335 337 336 337 335 333 334 336 336 334 334 333 334 334 332
317 314 310 326 324 320 327 329 327 327 327 328 329 331 333 334 335 334 334 334 333 332 331 333 336 334 332 332 332 331 331 329
320 320 325 328 329 329 330 328 328 328 328 330 330 330 332 333 334 334 333 334 331 331 331 333 334 333 330 329 329 328 329 328
321 324 324 326 328 330 331 330 331 332 332 329 327 329 330 333 334 333 333 330 331 331 331 331 330 330 328 327 326 326 325 325
322 324 325 325 328 330 331 332 330 330 329 328 329 330 332 332 332 332 332 331 332 332 330 326 329 327 324 324 324 322 322 323
318 329 326 328 330 331 330 328 330 330 329 330 330 330 331 331 333 333 331 332 332 331 329 327 327 324 323 323 323 322 320 320
325 330 329 331 333 332 330 331 331 331 332 329 330 330 329 331 332 325 332 331 330 328 327 327 325 322 321 321 321 320 318 317
Wind_Speed
4 7 8 10 8 7 7 2 7 7 6 8 9 9 10 11 11 12 13 14 15 15 14 14 13 12 11 10 8 7 6 4
6 6 3 9 2 8 6 3 3 7 2 9 12 10 11 12 14 14 15 16 16 16 15 14 15 14 14 13 12 10 9 7
5 12 10 7 9 4 4 6 4 5 5 9 8 9 12 13 14 13 14 14 14 14 14 14 13 13 13 12 11 10 9 8
21 6 3 8 9 10 7 10 3 7 7 6 7 11 13 14 13 13 13 13 13 13 13 12 12 11 10 9 9 8 7 7
10 4 5 11 9 9 5 3 6 9 9 8 10 12 12 14 13 12 13 13 13 11 11 10 10 9 9 9 9 8 8 8
10 5 4 8 10 11 11 7 9 10 13 11 12 13 13 13 12 12 11 11 11 10 9 8 8 8 8 7 7 7 8 9
10 3 2 3 10 11 11 4 7 9 4 14 12 12 13 12 11 10 10 9 9 8 6 6 7 6 7 7 7 8 9 11
2 4 4 6 5 6 4 1 1 3 7 11 12 11 11 10 10 9 8 7 7 5 4 5 6 7 7 8 9 10 12 13
6 9 4 9 7 5 5 2 2 4 9 12 14 13 12 10 7 7 7 6 4 3 5 6 6 6 9 9 11 11 13 13
6 4 3 5 0 1 2 1 2 4 10 12 12 10 8 6 7 6 5 3 2 3 5 6 8 9 10 12 11 12 13 13
2 3 10 9 5 7 9 8 5 6 10 11 10 9 7 6 3 4 3 1 2 3 5 6 8 9 10 12 12 12 13 13
15 20 15 5 9 4 2 7 7 11 13 14 13 9 7 9 7 5 3 2 4 5 6 7 9 11 12 12 11 12 13 14
11 10 6 5 7 5 7 5 9 11 12 12 8 6 10 10 6 4 3 2 3 4 7 8 9 11 11 11 12 13 14 14
9 12 6 6 8 4 6 7 9 11 10 9 7 8 8 8 6 4 3 2 4 6 8 8 10 10 11 12 12 13 12 12
6 7 4 4 6 4 6 10 10 10 10 8 8 8 7 6 5 4 2 3 6 7 8 9 11 11 11 12 12 13 13 12
4 5 4 4 5 7 10 11 11 10 9 7 5 5 5 5 6 4 3 5 7 8 9 10 10 10 10 12 12 13 12 12
5 3 3 5 9 9 11 11 11 8 6 5 5 4 5 6 5 3 3 5 6 7 8 8 8 10 11 12 13 13 12 11
2 11 7 13 12 13 12 11 10 8 7 5 3 5 4 5 4 2 4 5 6 6 6 7 9 9 11 12 12 12 12 10
4 4 3 14 14 12 12 10 8 7 7 7 5 4 2 5 4 3 4 5 6 7 6 7 7 9 10 11 12 12 11 11
Wind_Direction
193 196 244 155 224 342 296 171 261 123 117 141 116 85 102 101 96 87 83 80 83 80 80 79 78 70 70 71 60 42 24 341
106 199 210 276 101 203 223 197 267 132 228 100 155 111 114 105 101 97 95 93 88 83 77 74 74 76 74 71 63 53 46 31
200 205 194 171 217 241 323 296 311 219 139 86 122 134 126 115 110 106 100 94 89 86 85 83 81 78 73 67 59 48 33 19
243 119 302 258 258 215 230 170 246 312 84 82 122 136 130 118 115 109 105 102 95 95 94 89 83 75 71 65 54 39 19 3
193 188 189 219 192 245 270 273 178 285 102 118 126 133 131 129 122 120 115 108 102 96 87 80 74 63 51 44 42 29 9 360
288 159 110 192 189 215 229 207 148 240 121 153 146 145 142 132 125 120 112 106 100 94 88 79 64 54 37 33 22 10 352 338
306 304 222 191 172 187 230 327 276 43 341 148 155 152 147 133 128 123 110 99 97 90 84 60 45 31 21 8 354 344 336 334
133 34 199 179 172 203 218 224 245 294 103 129 146 134 148 144 141 127 116 109 105 89 62 44 36 4 353 347 333 329 329 331
177 6 322 212 166 180 123 198 319 228 90 143 160 166 159 152 145 135 122 121 108 52 17 15 1 354 342 341 344 339 338 332
167 355 246 43 188 292 33 13 144 110 134 158 161 157 149 142 142 138 117 115 99 358 345 343 354 1 349 347 344 337 335 338
13 320 250 244 195 180 195 147 174 124 140 146 139 142 152 139 135 134 128 102 14 3 353 2 14 359 351 340 341 340 342 335
186 232 225 236 139 139 197 173 159 154 156 155 165 200 147 160 158 154 147 61 350 3 9 20 9 356 344 348 341 347 337 334
210 242 123 120 158 168 217 87 155 159 159 159 185 39 113 150 156 142 84 68 46 22 21 17 7 353 350 344 353 340 341 337
230 227 208 154 151 256 85 139 146 150 158 158 116 129 137 146 141 150 132 80 27 13 11 10 10 355 344 354 345 342 336 333
343 38 86 136 55 115 138 138 143 144 153 145 141 144 144 144 154 140 113 56 10 4 1 4 12 357 349 352 343 335 334 342
222 103 101 126 122 135 137 134 139 133 138 145 135 136 145 148 147 149 71 22 11 3 2 9 358 356 358 355 345 337 340 335
101 130 148 163 152 141 132 129 120 118 121 125 134 144 150 146 145 107 58 26 13 12 19 1 352 11 4 358 350 344 346 353
271 157 221 157 161 154 144 134 130 127 124 126 151 145 153 134 108 72 44 22 21 16 15 358 13 13 9 3 357 351 344 5
348 146 116 145 150 150 135 130 127 126 126 133 115 124 165 132 102 123 58 36 26 20 14 13 16 18 8 5 1 1 355 2